Tracking 18840 objects as of 17-November-2017
HD Live streaming from Space Station
objects crossing your sky now

FENGYUN 1C DEB

Track FENGYUN 1C DEB now!
10-day predictions


NORAD ID: 30686
Int'l Code: 1999-025AQU
Perigee: 587.9 km
Apogee: 879.0 km
Inclination: 99.0 °
Period: 99.3 minutes
Semi major axis: 7104 km
RCS: 0.0215 m2 (small)
Launch date: May 10, 1999
Source: People's Republic of China (PRC)
Launch site: Taiyaun Space Center, China (TSC)

Note: This is SATELLITE DEBRIS
aabbcc
Your satellite tracking list
Your tracking list is empty




NASA's NSSDC Master Catalog

Two Line Element Set (TLE):
1 30686U 99025AQU 17320.77805612  .00000907  00000-0  19209-3 0  9997
2 30686  98.9745 240.4664 0204856  33.5909  25.2266 14.49800147567860
Source of the keplerian elements: AFSPC